Almeria, Spain

9:16 AM CET en Enero 24, 2019 (GMT +0100)
Almeria

Tiempo Historia de LEAM - Enero, 2019

Change the Weather History Date:

Sábado, Enero 12, 2019

  Actual Average Record
Temperature  
Temperatura media 50 ° F -  
Temperatura máxima 59 ° F 59 ° F 66 ° F (1997)
Temperatura mínima 40 ° F 46 ° F 37 ° F (2003)
Degree Days  
Grados día de calefacción 16    
Moisture  
Punto de rocío 35 ° F    
Average Humidity 57    
Maximum Humidity 76    
Minimum Humidity 28    
Precipitación  
Precipitación 0.00 pul 0.03 pul - ()
Presión al nivel del mar  
Presión al nivel del mar 30.37 pul    
Viento  
Velocidad del viento 10 mph ()    
Velocidad máxima del viento 16 mph    
Max Gust Speed -    
Visibilidad 6.2 Millas    
Eventos      
Averages and records for this station are not official NWS values.
T = Trace of Precipitation, MM = Missing Value Source: Averaged Metar Reports

Daily Weather History Graph

Daily Weather History Graph

Search for Another Location

Airport or City:

Astronomía

Jan. 12, 2019 Salida Puesta
Hora real 8:22 AM CET 6:13 PM CET
Crepúsculo civil 7:53 AM CET 6:41 PM CET
Crepúsculo náutico 7:21 AM CET 7:13 PM CET
Crepúsculo astronómico 6:50 AM CET 7:45 PM CET
Luna 12:07 PM CET (1/12) Sin puesta de luna
Horas de luz 10h 48m
Horas de luz
9h 51m
Creciente, 33% of the Moon is Illuminated
Ene 12
Creciente
Ene 14
Cuarto creciente
Ene 21
Luna llena
Ene 27
Cuarto menguante
Feb 4
Nueva

Hourly Weather History & Observations

Hora (CET) Temp. Vientos helados Punto de rocío Humedad Presión Visibilidad Wind Dir Velocidad del viento Velocidad de ráfagas Precip Eventos Condiciones
12:00 AM 46 ° F - 34 ° F 51% 30.35 pul - NNO 11.5 mph - -  
12:00 AM 46.4 ° F 41.1 ° F 32.0 ° F 57% 30.33 pul 6.2 mi NNO 11.5 mph - N/A   Desconocido
12:30 AM 46.4 ° F 41.1 ° F 33.8 ° F 62% 30.33 pul 6.2 mi NNO 11.5 mph - N/A   Desconocido
1:00 AM 44 ° F - 33 ° F 54% 30.35 pul - NO 13.8 mph - -  
1:00 AM 44.6 ° F 38.4 ° F 32.0 ° F 61% 30.33 pul 6.2 mi NNO 12.7 mph - N/A   Desconocido
1:30 AM 44.6 ° F 38.4 ° F 32.0 ° F 61% 30.33 pul 6.2 mi NNO 12.7 mph - N/A   Desconocido
2:00 AM 44 ° F - 33 ° F 54% 30.36 pul - NNO 11.5 mph - -  
2:00 AM 44.6 ° F 38.8 ° F 32.0 ° F 61% 30.33 pul 6.2 mi NNO 11.5 mph - N/A   Desconocido
2:30 AM 42.8 ° F 35.8 ° F 32.0 ° F 66% 30.33 pul 6.2 mi NNO 13.8 mph - N/A   Desconocido
3:00 AM 43 ° F - 31 ° F 52% 30.37 pul - NNO 16.1 mph - -  
3:00 AM 42.8 ° F 35.1 ° F 30.2 ° F 61% 30.36 pul 6.2 mi NNO 16.1 mph - N/A   Desconocido
3:30 AM 42.8 ° F 35.1 ° F 30.2 ° F 61% 30.36 pul 6.2 mi NNO 16.1 mph - N/A   Desconocido
4:00 AM 42 ° F - 31 ° F 55% 30.37 pul - NO 16.1 mph - -  
4:00 AM 42.8 ° F 35.1 ° F 30.2 ° F 61% 30.36 pul 6.2 mi NO 16.1 mph - N/A   Desconocido
4:30 AM 41.0 ° F 32.8 ° F 30.2 ° F 65% 30.36 pul 6.2 mi NNO 16.1 mph - N/A   Desconocido
5:00 AM 41.0 ° F 32.8 ° F 30.2 ° F 65% 30.33 pul - NNO 16.1 mph - N/A   Despejado
5:30 AM 41.0 ° F 32.8 ° F 30.2 ° F 65% 30.33 pul - NNO 16.1 mph - N/A   Despejado
6:00 AM 42 ° F - 30 ° F 52% 30.36 pul - NO 15.0 mph - -  
6:00 AM 41.0 ° F 33.1 ° F 30.2 ° F 65% 30.33 pul - NNO 15.0 mph - N/A   Despejado
6:30 AM 41.0 ° F 33.5 ° F 28.4 ° F 61% 30.33 pul - NNO 13.8 mph - N/A   Despejado
7:00 AM 41 ° F - 29 ° F 50% 30.36 pul 31 mi NO 15.0 mph - -   Despejado
7:00 AM 41.0 ° F 33.1 ° F 28.4 ° F 61% 30.33 pul - NNO 15.0 mph - N/A   Despejado
7:30 AM 41.0 ° F 33.1 ° F 28.4 ° F 61% 30.36 pul 6.2 mi NNO 15.0 mph - N/A   Parcialmente nublado
8:00 AM 41.0 ° F 32.8 ° F 28.4 ° F 61% 30.36 pul 6.2 mi NNO 16.1 mph - N/A   Parcialmente nublado
8:30 AM 41.0 ° F 32.8 ° F 26.6 ° F 57% 30.36 pul 6.2 mi NNO 16.1 mph - N/A   Parcialmente nublado
9:00 AM 42.8 ° F 35.1 ° F 26.6 ° F 53% 30.36 pul - NNO 16.1 mph - N/A   Despejado
9:30 AM 42.8 ° F 35.1 ° F 26.6 ° F 53% 30.39 pul - NNO 16.1 mph - N/A   Despejado
10:00 AM 46 ° F - 29 ° F 38% 30.41 pul 31 mi NO 15.0 mph - -   Despejado
10:00 AM 46.4 ° F 40.1 ° F 28.4 ° F 50% 30.39 pul - NNO 15.0 mph - N/A   Despejado
10:30 AM 50.0 ° F - 28.4 ° F 43% 30.42 pul - NO 12.7 mph - N/A   Despejado
11:00 AM 52 ° F - 29 ° F 28% 30.43 pul - NO 11.5 mph - -  
11:00 AM 51.8 ° F - 28.4 ° F 41% 30.42 pul - NO 11.5 mph - N/A   Despejado
11:30 AM 55.4 ° F - 28.4 ° F 36% 30.42 pul 6.2 mi NO 8.1 mph - N/A   Parcialmente nublado
12:00 PM 57 ° F - 38 ° F 37% 30.42 pul - NNE 2.3 mph - -  
12:00 PM 57.2 ° F - 35.6 ° F 44% 30.39 pul 6.2 mi Variable 2.3 mph - N/A   Parcialmente nublado
12:30 PM 57.2 ° F - 37.4 ° F 48% 30.39 pul 6.2 mi Sur 5.8 mph - N/A   Parcialmente nublado
1:00 PM 58 ° F - 40 ° F 39% 30.39 pul 31 mi Sur 6.9 mph - -   Nubes dispersas
1:00 PM 57.2 ° F - 39.2 ° F 51% 30.39 pul 6.2 mi Sur 6.9 mph - N/A   Parcialmente nublado
1:30 PM 57.2 ° F - 39.2 ° F 51% 30.36 pul 6.2 mi Sur 6.9 mph - N/A   Parcialmente nublado
2:00 PM 59 ° F - 42 ° F 41% 30.37 pul - Sur 8.1 mph - -  
2:00 PM 57.2 ° F - 41.0 ° F 55% 30.36 pul 6.2 mi Sur 6.9 mph - N/A   Parcialmente nublado
2:30 PM 57.2 ° F - 42.8 ° F 59% 30.36 pul 6.2 mi Sur 6.9 mph - N/A   Parcialmente nublado
3:00 PM 59 ° F - 43 ° F 44% 30.36 pul - Sur 8.1 mph - -  
3:00 PM 57.2 ° F - 41.0 ° F 55% 30.36 pul 6.2 mi Sur 8.1 mph - N/A   Parcialmente nublado
3:30 PM 57.2 ° F - 42.8 ° F 59% 30.36 pul 6.2 mi Sur 8.1 mph - N/A   Parcialmente nublado
4:00 PM 58 ° F - 43 ° F 47% 30.36 pul 31 mi Sur 6.9 mph - -   Nubes dispersas
4:00 PM 57.2 ° F - 41.0 ° F 55% 30.36 pul 6.2 mi Sur 6.9 mph - N/A   Parcialmente nublado
4:30 PM 57.2 ° F - 41.0 ° F 55% 30.33 pul 6.2 mi Sur 5.8 mph - N/A   Parcialmente nublado
5:00 PM 57 ° F - 43 ° F 48% 30.36 pul - Sur 5.8 mph - -  
5:00 PM 57.2 ° F - 42.8 ° F 59% 30.33 pul 6.2 mi Sur 5.8 mph - N/A   Parcialmente nublado
5:30 PM 55.4 ° F - 41.0 ° F 58% 30.36 pul 6.2 mi SSO 4.6 mph - N/A   Parcialmente nublado
6:00 PM 56 ° F - 42 ° F 49% 30.37 pul - SSO 3.5 mph - -  
6:00 PM 55.4 ° F - 41.0 ° F 58% 30.36 pul 6.2 mi SSO 3.5 mph - N/A   Parcialmente nublado
6:30 PM 53.6 ° F - 41.0 ° F 62% 30.36 pul 6.2 mi Variable 1.2 mph - N/A   Parcialmente nublado
7:00 PM 52 ° F - 41 ° F 57% 30.38 pul 31 mi Sin viento Sin viento - -   Nubes dispersas
7:00 PM 51.8 ° F - 41.0 ° F 67% 30.36 pul 6.2 mi Sin viento Sin viento - N/A   Parcialmente nublado
7:30 PM 50.0 ° F - 41.0 ° F 71% 30.36 pul - Norte 2.3 mph - N/A   Despejado
8:00 PM 48 ° F - 40 ° F 67% 30.39 pul - Norte 5.8 mph - -  
8:00 PM 48.2 ° F - 39.2 ° F 71% 30.36 pul - Norte 5.8 mph - N/A   Despejado
8:30 PM 48.2 ° F - 39.2 ° F 71% 30.36 pul - Norte 5.8 mph - N/A   Despejado
9:00 PM 47 ° F - 40 ° F 70% 30.39 pul - Norte 6.9 mph - -  
9:00 PM 46.4 ° F 43.5 ° F 39.2 ° F 76% 30.36 pul - Norte 5.8 mph - N/A   Despejado
9:30 PM 46.4 ° F 42.4 ° F 39.2 ° F 76% 30.39 pul - NNO 8.1 mph - N/A   Despejado
10:00 PM 48 ° F - 39 ° F 63% 30.39 pul 28 mi NO 9.2 mph - -   Despejado
10:30 PM 48.2 ° F - 37.4 ° F 66% 30.39 pul - NNO 9.2 mph - N/A   Despejado
11:00 PM 46.4 ° F 41.5 ° F 37.4 ° F 71% 30.39 pul 6.2 mi NO 10.4 mph - N/A   Desconocido
11:30 PM 46.4 ° F 41.1 ° F 37.4 ° F 71% 30.39 pul 6.2 mi NO 11.5 mph - N/A   Desconocido